Simultaneous Nadir Overpasses (SNOs) Predictions

Prediction of SNOs between LANDSAT-8 and NOAA-19 Satellite Orbit:

Table of predicted SNOs for the next 14.0 days since TLE Epoch: 12/13/2013
Index Date (LANDSAT-8) Time (LANDSAT-8) Lat,Lon (LANDSAT-8) SZA (LANDSAT-8 ) Date (NOAA-19) Time (NOAA-19) Lat,Lon (NOAA-19) SZA (NOAA-19 ) Distance(km) Time Diff (sec)
1 12/14/2013 08:32:01 72.15, 51.84 95.27 12/14/2013 08:30:55 72.21, 49.13 95.34 92.50 66
2 12/14/2013 09:21:44 -71.34,-141.90 85.54 12/14/2013 09:21:41 -71.32,-141.96 85.56 2.99 3
3 12/14/2013 10:11:21 70.68, 24.72 93.81 12/14/2013 10:12:29 70.66, 26.43 93.79 62.73 68
4 12/16/2013 14:06:00 -71.32, 147.00 85.46 12/16/2013 14:05:48 -71.32, 147.03 85.45 1.27 12
5 12/16/2013 14:55:31 70.99, -45.88 94.22 12/16/2013 14:56:42 70.95, -45.07 94.18 29.56 71
6 12/18/2013 18:50:15 -71.33, 75.95 85.38 12/18/2013 18:49:55 -71.34, 76.00 85.37 1.93 20
7 12/18/2013 19:39:42 71.21,-116.59 94.51 12/18/2013 19:40:55 71.25,-116.60 94.55 3.66 73
8 12/20/2013 23:34:29 -71.37, 4.95 85.30 12/20/2013 23:34:02 -71.35, 4.96 85.32 1.99 27
9 12/21/2013 00:23:56 71.25, 172.41 94.59 12/21/2013 00:25:02 71.24, 172.41 94.57 1.95 66
10 12/23/2013 04:18:43 -71.40, -66.07 85.28 12/23/2013 04:18:09 -71.38, -66.10 85.29 1.83 34
11 12/23/2013 05:08:10 71.28, 101.38 94.60 12/23/2013 05:09:10 71.29, 101.31 94.62 2.90 60
12 12/25/2013 09:02:57 -71.40,-137.13 85.32 12/25/2013 09:02:16 -71.42,-137.17 85.30 2.44 41
13 12/25/2013 09:52:24 71.28,
